Time,TemperatureF,DewpointF,PressureIn,WindDirection,WindDirectionDegrees,WindSpeedMPH,WindSpeedGustMPH,Humidity,HourlyPrecipIn,Conditions,Clouds,dailyrainin,SoftwareType,DateUTC
2013-02-11 00:13:00,61.8,61.0,29.93,NW,313,0.0,-999.0,96,-99.99,,,0.05,weatherlink.com 1.10,2013-02-11 06:13:00,
2013-02-11 00:28:00,61.6,61.0,29.92,NW,313,0.0,-999.0,96,-99.99,,,0.05,weatherlink.com 1.10,2013-02-11 06:28:00,
2013-02-11 00:43:00,61.5,60.0,29.93,NW,313,1.0,-999.0,96,-99.99,,,0.05,weatherlink.com 1.10,2013-02-11 06:43:00,
2013-02-11 00:58:00,61.3,60.0,29.95,NW,313,0.0,-999.0,96,-99.99,,,0.05,weatherlink.com 1.10,2013-02-11 06:58:00,
2013-02-11 01:13:00,61.2,60.0,29.95,NW,313,0.0,-999.0,96,-99.99,,,0.05,weatherlink.com 1.10,2013-02-11 07:13:00,
2013-02-11 01:28:00,61.2,60.0,29.95,NW,313,0.0,-999.0,96,-99.99,,,0.05,weatherlink.com 1.10,2013-02-11 07:28:00,
2013-02-11 01:43:00,61.2,60.0,29.96,NW,313,1.0,-999.0,96,-99.99,,,0.05,weatherlink.com 1.10,2013-02-11 07:43:00,
2013-02-11 01:58:00,61.3,60.0,29.99,North,354,7.0,-999.0,96,-99.99,,,0.05,weatherlink.com 1.10,2013-02-11 07:58:00,
2013-02-11 02:13:00,59.0,58.0,29.99,NW,325,2.0,-999.0,95,-99.99,,,0.06,weatherlink.com 1.10,2013-02-11 08:13:00,
2013-02-11 02:28:00,56.5,55.0,29.99,North,350,0.0,-999.0,95,-99.99,,,0.06,weatherlink.com 1.10,2013-02-11 08:28:00,
2013-02-11 02:42:00,56.6,56.0,30.00,NNE,23,0.0,-999.0,96,-99.99,,,0.06,weatherlink.com 1.10,2013-02-11 08:42:00,
2013-02-11 02:58:00,57.0,56.0,29.99,NNW,329,0.0,-999.0,96,-99.99,,,0.07,weatherlink.com 1.10,2013-02-11 08:58:00,
2013-02-11 03:13:00,57.3,56.0,29.99,NNW,332,0.0,-999.0,96,-99.99,,,0.07,weatherlink.com 1.10,2013-02-11 09:13:00,
2013-02-11 03:28:00,57.5,56.0,29.98,North,0,2.0,-999.0,96,-99.99,,,0.07,weatherlink.com 1.10,2013-02-11 09:28:00,
2013-02-11 03:43:00,56.7,55.0,29.98,NNE,18,2.0,-999.0,95,-99.99,,,0.07,weatherlink.com 1.10,2013-02-11 09:43:00,
2013-02-11 03:58:00,56.3,55.0,29.98,North,0,6.0,-999.0,95,-99.99,,,0.07,weatherlink.com 1.10,2013-02-11 09:58:00,
2013-02-11 04:13:00,56.0,54.0,29.98,North,0,3.0,-999.0,93,-99.99,,,0.07,weatherlink.com 1.10,2013-02-11 10:13:00,
2013-02-11 04:28:00,55.7,54.0,30.02,North,0,3.0,-999.0,92,-99.99,,,0.07,weatherlink.com 1.10,2013-02-11 10:28:00,
2013-02-11 04:43:00,55.3,53.0,30.02,North,0,3.0,-999.0,90,-99.99,,,0.08,weatherlink.com 1.10,2013-02-11 10:43:00,
2013-02-11 04:58:00,55.3,53.0,30.00,North,352,0.0,-999.0,90,-99.99,,,0.08,weatherlink.com 1.10,2013-02-11 10:58:00,
2013-02-11 05:13:00,55.1,52.0,30.00,North,352,1.0,-999.0,90,-99.99,,,0.08,weatherlink.com 1.10,2013-02-11 11:13:00,
2013-02-11 05:27:00,54.8,52.0,30.03,NNE,28,1.0,-999.0,89,-99.99,,,0.08,weatherlink.com 1.10,2013-02-11 11:27:00,
2013-02-11 05:43:00,54.7,51.0,30.03,North,0,0.0,-999.0,87,-99.99,,,0.08,weatherlink.com 1.10,2013-02-11 11:43:00,
2013-02-11 05:58:00,54.7,51.0,30.05,East,96,0.0,-999.0,86,-99.99,,,0.08,weatherlink.com 1.10,2013-02-11 11:58:00,
2013-02-11 06:13:00,54.7,50.0,30.07,NE,40,0.0,-999.0,85,-99.99,,,0.08,weatherlink.com 1.10,2013-02-11 12:13:00,
2013-02-11 06:28:00,54.4,50.0,30.07,NE,35,2.0,-999.0,84,-99.99,,,0.09,weatherlink.com 1.10,2013-02-11 12:28:00,
2013-02-11 06:43:00,54.1,50.0,30.06,NNE,31,2.0,-999.0,85,-99.99,,,0.11,weatherlink.com 1.10,2013-02-11 12:43:00,
2013-02-11 06:58:00,53.9,50.0,30.06,NNW,332,1.0,-999.0,85,-99.99,,,0.11,weatherlink.com 1.10,2013-02-11 12:58:00,
2013-02-11 07:13:00,-999.0,-99.9,30.07,North,-999,-999.0,-999.0,-999,-99.99,,,0.11,weatherlink.com 1.10,2013-02-11 13:13:00,
2013-02-11 07:28:00,52.9,50.0,30.08,North,1,0.0,-999.0,88,-99.99,,,0.18,weatherlink.com 1.10,2013-02-11 13:28:00,
2013-02-11 07:43:00,52.6,50.0,30.08,North,1,0.0,-999.0,89,-99.99,,,0.18,weatherlink.com 1.10,2013-02-11 13:43:00,
2013-02-11 07:58:00,52.5,49.0,30.07,North,1,0.0,-999.0,89,-99.99,,,0.18,weatherlink.com 1.10,2013-02-11 13:58:00,
2013-02-11 08:13:00,52.6,50.0,30.08,North,1,0.0,-999.0,90,-99.99,,,0.19,weatherlink.com 1.10,2013-02-11 14:13:00,
2013-02-11 08:28:00,52.8,50.0,30.08,North,1,0.0,-999.0,91,-99.99,,,0.19,weatherlink.com 1.10,2013-02-11 14:28:00,
2013-02-11 08:43:00,52.8,50.0,30.09,North,1,0.0,-999.0,91,-99.99,,,0.19,weatherlink.com 1.10,2013-02-11 14:43:00,
2013-02-11 08:58:00,52.9,51.0,30.08,SSE,161,0.0,-999.0,92,-99.99,,,0.19,weatherlink.com 1.10,2013-02-11 14:58:00,
2013-02-11 09:13:00,53.1,51.0,30.11,NNE,14,6.0,-999.0,92,-99.99,,,0.20,weatherlink.com 1.10,2013-02-11 15:13:00,
2013-02-11 09:28:00,52.6,50.0,30.08,East,97,2.0,-999.0,92,-99.99,,,0.21,weatherlink.com 1.10,2013-02-11 15:28:00,
2013-02-11 09:43:00,52.5,50.0,30.12,NE,40,2.0,-999.0,92,-99.99,,,0.23,weatherlink.com 1.10,2013-02-11 15:43:00,
2013-02-11 09:58:00,51.7,50.0,30.09,East,96,4.0,-999.0,92,-99.99,,,0.23,weatherlink.com 1.10,2013-02-11 15:58:00,
2013-02-11 10:13:00,51.6,49.0,30.11,East,88,0.0,-999.0,92,-99.99,,,0.23,weatherlink.com 1.10,2013-02-11 16:13:00,
2013-02-11 10:28:00,51.7,50.0,30.11,East,79,0.0,-999.0,92,-99.99,,,0.23,weatherlink.com 1.10,2013-02-11 16:28:00,
2013-02-11 10:43:00,51.9,50.0,30.12,NNE,31,1.0,-999.0,92,-99.99,,,0.26,weatherlink.com 1.10,2013-02-11 16:43:00,
2013-02-11 10:58:00,52.5,50.0,30.07,ENE,68,3.0,-999.0,92,-99.99,,,0.27,weatherlink.com 1.10,2013-02-11 16:58:00,
2013-02-11 11:13:00,52.9,51.0,30.07,East,100,1.0,-999.0,93,-99.99,,,0.28,weatherlink.com 1.10,2013-02-11 17:13:00,
2013-02-11 11:28:00,52.9,51.0,30.07,East,89,5.0,-999.0,93,-99.99,,,0.28,weatherlink.com 1.10,2013-02-11 17:28:00,
2013-02-11 11:43:00,52.8,51.0,30.07,East,96,1.0,-999.0,93,-99.99,,,0.29,weatherlink.com 1.10,2013-02-11 17:43:00,
2013-02-11 11:58:00,52.9,51.0,30.08,East,80,0.0,-999.0,93,-99.99,,,0.29,weatherlink.com 1.10,2013-02-11 17:58:00,
2013-02-11 12:13:00,52.6,51.0,30.08,East,83,0.0,-999.0,93,-99.99,,,0.29,weatherlink.com 1.10,2013-02-11 18:13:00,
2013-02-11 12:28:00,52.6,51.0,30.06,NE,42,2.0,-999.0,93,-99.99,,,0.30,weatherlink.com 1.10,2013-02-11 18:28:00,
2013-02-11 12:43:00,-999.0,-99.9,30.08,North,-999,-999.0,-999.0,-999,-99.99,,,0.30,weatherlink.com 1.10,2013-02-11 18:43:00,
2013-02-11 12:58:00,-999.0,-99.9,30.07,North,-999,-999.0,-999.0,-999,-99.99,,,0.30,weatherlink.com 1.10,2013-02-11 18:58:00,
2013-02-11 13:13:00,53.1,52.0,30.06,NE,37,0.0,-999.0,94,-99.99,,,0.30,weatherlink.com 1.10,2013-02-11 19:13:00,
2013-02-11 13:28:00,52.8,51.0,30.06,ENE,75,2.0,-999.0,94,-99.99,,,0.30,weatherlink.com 1.10,2013-02-11 19:28:00,
2013-02-11 13:43:00,52.8,51.0,30.08,North,6,3.0,-999.0,94,-99.99,,,0.31,weatherlink.com 1.10,2013-02-11 19:43:00,
2013-02-11 13:58:00,-999.0,-99.9,30.07,North,-999,-999.0,-999.0,-999,-99.99,,,0.31,weatherlink.com 1.10,2013-02-11 19:58:00,
2013-02-11 14:13:00,-999.0,-99.9,30.06,North,-999,-999.0,-999.0,-999,-99.99,,,0.31,weatherlink.com 1.10,2013-02-11 20:13:00,
2013-02-11 14:28:00,-999.0,-99.9,30.02,NNE,27,0.0,-999.0,95,-99.99,,,0.31,weatherlink.com 1.10,2013-02-11 20:28:00,
2013-02-11 14:43:00,52.6,51.0,30.06,WNW,301,0.0,-999.0,95,-99.99,,,0.31,weatherlink.com 1.10,2013-02-11 20:43:00,
2013-02-11 14:58:00,53.1,52.0,30.07,NNW,343,0.0,-999.0,95,-99.99,,,0.40,weatherlink.com 1.10,2013-02-11 20:58:00,
2013-02-11 15:13:00,52.9,52.0,30.05,NNE,20,4.0,-999.0,95,-99.99,,,0.40,weatherlink.com 1.10,2013-02-11 21:13:00,
2013-02-11 15:28:00,52.9,52.0,30.02,NW,309,2.0,-999.0,95,-99.99,,,0.40,weatherlink.com 1.10,2013-02-11 21:28:00,
2013-02-11 15:43:00,52.6,51.0,30.06,NNW,346,0.0,-999.0,95,-99.99,,,0.41,weatherlink.com 1.10,2013-02-11 21:43:00,
2013-02-11 15:58:00,-999.0,-99.9,30.07,North,-999,-999.0,-999.0,-999,-99.99,,,0.41,weatherlink.com 1.10,2013-02-11 21:58:00,
2013-02-11 16:13:00,-999.0,-99.9,30.06,North,-999,-999.0,-999.0,-999,-99.99,,,0.41,weatherlink.com 1.10,2013-02-11 22:13:00,
2013-02-11 16:28:00,53.2,52.0,30.05,NNE,32,2.0,-999.0,95,-99.99,,,0.41,weatherlink.com 1.10,2013-02-11 22:28:00,
2013-02-11 16:43:00,52.9,52.0,30.05,North,0,0.0,-999.0,95,-99.99,,,0.41,weatherlink.com 1.10,2013-02-11 22:43:00,
2013-02-11 16:58:00,52.9,52.0,30.05,North,0,1.0,-999.0,95,-99.99,,,0.41,weatherlink.com 1.10,2013-02-11 22:58:00,
2013-02-11 17:13:00,52.6,51.0,30.05,NNE,31,3.0,-999.0,95,-99.99,,,0.42,weatherlink.com 1.10,2013-02-11 23:13:00,
2013-02-11 17:28:00,52.5,51.0,30.05,North,0,2.0,-999.0,95,-99.99,,,0.42,weatherlink.com 1.10,2013-02-11 23:28:00,
2013-02-11 17:43:00,52.2,51.0,30.05,North,10,0.0,-999.0,95,-99.99,,,0.42,weatherlink.com 1.10,2013-02-11 23:43:00,
2013-02-11 17:58:00,51.9,51.0,30.05,NNE,30,1.0,-999.0,95,-99.99,,,0.42,weatherlink.com 1.10,2013-02-11 23:58:00,
2013-02-11 18:13:00,51.6,50.0,30.04,North,4,2.0,-999.0,95,-99.99,,,0.42,weatherlink.com 1.10,2013-02-12 00:13:00,
2013-02-11 18:28:00,51.4,50.0,30.05,NNE,17,3.0,-999.0,95,-99.99,,,0.43,weatherlink.com 1.10,2013-02-12 00:28:00,
2013-02-11 18:43:00,51.4,50.0,30.04,North,0,2.0,-999.0,95,-99.99,,,0.43,weatherlink.com 1.10,2013-02-12 00:43:00,
2013-02-11 18:58:00,51.4,50.0,30.05,North,8,3.0,-999.0,95,-99.99,,,0.43,weatherlink.com 1.10,2013-02-12 00:58:00,
2013-02-11 19:13:00,51.4,50.0,30.05,NNE,25,3.0,-999.0,95,-99.99,,,0.43,weatherlink.com 1.10,2013-02-12 01:13:00,
2013-02-11 19:28:00,51.3,50.0,30.05,ENE,66,3.0,-999.0,95,-99.99,,,0.43,weatherlink.com 1.10,2013-02-12 01:28:00,
2013-02-11 19:43:00,51.3,50.0,30.04,North,352,3.0,-999.0,95,-99.99,,,0.43,weatherlink.com 1.10,2013-02-12 01:43:00,
2013-02-11 19:58:00,51.3,50.0,30.05,North,10,4.0,-999.0,95,-99.99,,,0.43,weatherlink.com 1.10,2013-02-12 01:58:00,
2013-02-11 20:13:00,51.3,50.0,30.05,North,1,2.0,-999.0,95,-99.99,,,0.43,weatherlink.com 1.10,2013-02-12 02:13:00,
2013-02-11 20:28:00,51.3,50.0,30.06,NNE,28,6.0,-999.0,95,-99.99,,,0.43,weatherlink.com 1.10,2013-02-12 02:28:00,
2013-02-11 20:43:00,51.3,50.0,30.05,North,357,2.0,-999.0,95,-99.99,,,0.43,weatherlink.com 1.10,2013-02-12 02:43:00,
2013-02-11 20:58:00,51.3,50.0,30.06,North,354,2.0,-999.0,95,-99.99,,,0.43,weatherlink.com 1.10,2013-02-12 02:58:00,
2013-02-11 21:13:00,51.3,50.0,30.05,ENE,73,1.0,-999.0,95,-99.99,,,0.43,weatherlink.com 1.10,2013-02-12 03:13:00,
2013-02-11 21:28:00,51.3,50.0,30.07,ESE,106,2.0,-999.0,95,-99.99,,,0.43,weatherlink.com 1.10,2013-02-12 03:28:00,
2013-02-11 21:43:00,-999.0,-99.9,30.05,North,-999,-999.0,-999.0,-999,-99.99,,,0.43,weatherlink.com 1.10,2013-02-12 03:43:00,
2013-02-11 21:58:00,51.6,50.0,30.05,NNE,24,2.0,-999.0,95,-99.99,,,0.43,weatherlink.com 1.10,2013-02-12 03:58:00,
2013-02-11 22:13:00,51.4,50.0,30.05,ENE,65,0.0,-999.0,95,-99.99,,,0.43,weatherlink.com 1.10,2013-02-12 04:13:00,
2013-02-11 22:28:00,51.6,50.0,30.05,NE,34,3.0,-999.0,95,-99.99,,,0.43,weatherlink.com 1.10,2013-02-12 04:28:00,
2013-02-11 22:43:00,51.6,50.0,30.04,NE,44,1.0,-999.0,95,-99.99,,,0.43,weatherlink.com 1.10,2013-02-12 04:43:00,
2013-02-11 22:58:00,51.6,50.0,30.04,North,8,5.0,-999.0,95,-99.99,,,0.43,weatherlink.com 1.10,2013-02-12 04:58:00,
2013-02-11 23:13:00,51.6,50.0,30.05,NE,34,3.0,-999.0,95,-99.99,,,0.00,weatherlink.com 1.10,2013-02-12 05:13:00,
2013-02-11 23:28:00,51.6,50.0,30.04,NNW,328,2.0,-999.0,95,-99.99,,,0.00,weatherlink.com 1.10,2013-02-12 05:28:00,
2013-02-11 23:43:00,51.6,50.0,30.04,NNE,30,2.0,-999.0,95,-99.99,,,0.00,weatherlink.com 1.10,2013-02-12 05:43:00,
2013-02-11 23:58:00,51.7,50.0,30.04,North,357,0.0,-999.0,95,-99.99,,,0.00,weatherlink.com 1.10,2013-02-12 05:58:00,